Time,TemperatureF,DewpointF,PressureIn,WindDirection,WindDirectionDegrees,WindSpeedMPH,WindSpeedGustMPH,Humidity,HourlyPrecipIn,Conditions,Clouds,dailyrainin,SoftwareType,DateUTC
2013-03-04 00:01:00,34.0,29.0,29.48,WNW,288,4.0,9.0,81,0.00,,,0.10,,2013-03-04 05:01:00,
2013-03-04 00:11:00,34.0,29.0,29.48,WNW,288,4.0,9.0,81,0.00,,,0.10,,2013-03-04 05:11:00,
2013-03-04 00:22:00,34.0,28.0,29.48,WNW,295,4.0,10.0,80,0.00,,,0.10,,2013-03-04 05:22:00,
2013-03-04 00:32:00,34.0,28.0,29.49,WNW,302,4.0,7.0,80,0.00,,,0.10,,2013-03-04 05:32:00,
2013-03-04 00:42:00,34.0,28.0,29.49,WNW,302,4.0,7.0,80,0.00,,,0.10,,2013-03-04 05:42:00,
2013-03-04 00:52:00,34.0,28.0,29.49,NW,306,4.0,5.0,80,0.00,,,0.10,,2013-03-04 05:52:00,
2013-03-04 01:02:00,34.0,29.0,29.49,WNW,298,3.0,6.0,81,0.00,,,0.10,,2013-03-04 06:02:00,
2013-03-04 01:11:00,34.0,29.0,29.49,WNW,298,3.0,6.0,81,0.00,,,0.10,,2013-03-04 06:11:00,
2013-03-04 01:22:00,33.0,28.0,29.49,WNW,298,5.0,10.0,80,0.00,,,0.10,,2013-03-04 06:22:00,
2013-03-04 01:32:00,33.0,28.0,29.49,WNW,292,6.0,11.0,80,0.00,,,0.10,,2013-03-04 06:32:00,
2013-03-04 01:42:00,33.0,28.0,29.49,WNW,292,6.0,11.0,80,0.00,,,0.10,,2013-03-04 06:42:00,
2013-03-04 01:52:00,33.0,28.0,29.49,WNW,302,4.0,12.0,80,0.00,,,0.10,,2013-03-04 06:52:00,
2013-03-04 02:02:00,33.0,28.0,29.49,WNW,300,3.0,5.0,81,0.00,,,0.10,,2013-03-04 07:02:00,
2013-03-04 02:11:00,33.0,28.0,29.49,WNW,300,3.0,5.0,81,0.00,,,0.10,,2013-03-04 07:11:00,
2013-03-04 02:22:00,33.0,28.0,29.49,NW,307,4.0,9.0,80,0.00,,,0.10,,2013-03-04 07:22:00,
2013-03-04 02:32:00,33.0,28.0,29.48,WNW,298,5.0,7.0,80,0.00,,,0.10,,2013-03-04 07:32:00,
2013-03-04 02:42:00,33.0,28.0,29.48,WNW,298,5.0,7.0,80,0.00,,,0.10,,2013-03-04 07:42:00,
2013-03-04 02:52:00,33.0,27.0,29.48,NW,305,5.0,8.0,79,0.00,,,0.10,,2013-03-04 07:52:00,
2013-03-04 03:02:00,32.0,27.0,29.48,WNW,290,4.0,6.0,80,0.00,,,0.10,,2013-03-04 08:02:00,
2013-03-04 03:12:00,32.0,27.0,29.48,WNW,290,4.0,6.0,80,0.00,,,0.10,,2013-03-04 08:12:00,
2013-03-04 03:22:00,32.0,27.0,29.49,NW,306,3.0,11.0,80,0.00,,,0.10,,2013-03-04 08:22:00,
2013-03-04 03:32:00,32.0,26.0,29.49,NW,309,3.0,6.0,79,0.00,,,0.10,,2013-03-04 08:32:00,
2013-03-04 03:42:00,32.0,26.0,29.49,NW,309,3.0,6.0,79,0.00,,,0.10,,2013-03-04 08:42:00,
2013-03-04 03:52:00,32.0,27.0,29.49,WNW,299,4.0,9.0,83,0.00,,,0.10,,2013-03-04 08:52:00,
2013-03-04 04:02:00,32.0,27.0,29.49,NW,304,4.0,9.0,83,0.00,,,0.10,,2013-03-04 09:02:00,
2013-03-04 04:11:00,32.0,27.0,29.49,NW,304,4.0,9.0,83,0.00,,,0.10,,2013-03-04 09:11:00,
2013-03-04 04:22:00,31.0,27.0,29.49,WNW,293,3.0,5.0,84,0.00,,,0.10,,2013-03-04 09:22:00,
2013-03-04 04:32:00,31.0,27.0,29.49,WNW,301,3.0,9.0,85,0.00,,,0.10,,2013-03-04 09:32:00,
2013-03-04 04:42:00,31.0,27.0,29.49,WNW,301,3.0,9.0,85,0.00,,,0.10,,2013-03-04 09:42:00,
2013-03-04 04:52:00,31.0,27.0,29.49,WNW,289,4.0,7.0,85,0.00,,,0.10,,2013-03-04 09:52:00,
2013-03-04 05:01:00,31.0,27.0,29.49,WNW,287,4.0,9.0,84,0.00,,,0.10,,2013-03-04 10:01:00,
2013-03-04 05:12:00,31.0,27.0,29.49,WNW,287,4.0,9.0,84,0.00,,,0.10,,2013-03-04 10:12:00,
2013-03-04 05:22:00,31.0,27.0,29.49,WNW,298,3.0,7.0,84,0.00,,,0.10,,2013-03-04 10:22:00,
2013-03-04 05:32:00,31.0,27.0,29.48,WNW,300,4.0,7.0,84,0.00,,,0.10,,2013-03-04 10:32:00,
2013-03-04 05:42:00,31.0,27.0,29.48,WNW,300,4.0,7.0,84,0.00,,,0.10,,2013-03-04 10:42:00,
2013-03-04 05:52:00,31.0,27.0,29.48,West,263,3.0,7.0,84,0.00,,,0.10,,2013-03-04 10:52:00,
2013-03-04 06:02:00,31.0,27.0,29.48,WNW,293,4.0,10.0,84,0.00,,,0.10,,2013-03-04 11:02:00,
2013-03-04 06:11:00,31.0,27.0,29.48,WNW,293,4.0,10.0,84,0.00,,,0.10,,2013-03-04 11:11:00,
2013-03-04 06:22:00,31.0,27.0,29.48,WNW,291,3.0,6.0,85,0.00,,,0.10,,2013-03-04 11:22:00,
2013-03-04 06:32:00,31.0,27.0,29.48,WNW,293,4.0,9.0,86,0.00,,,0.10,,2013-03-04 11:32:00,
2013-03-04 06:42:00,31.0,27.0,29.48,WNW,293,4.0,9.0,86,0.00,,,0.10,,2013-03-04 11:42:00,
2013-03-04 06:52:00,30.0,26.0,29.49,WNW,284,3.0,7.0,86,0.00,,,0.10,,2013-03-04 11:52:00,
2013-03-04 07:02:00,30.0,27.0,29.49,WNW,288,3.0,5.0,87,0.00,,,0.10,,2013-03-04 12:02:00,
2013-03-04 07:11:00,30.0,27.0,29.49,WNW,288,3.0,5.0,87,0.00,,,0.10,,2013-03-04 12:11:00,
2013-03-04 07:22:00,30.0,26.0,29.49,WNW,302,5.0,10.0,86,0.00,,,0.10,,2013-03-04 12:22:00,
2013-03-04 07:32:00,30.0,26.0,29.49,West,277,4.0,6.0,84,0.00,,,0.10,,2013-03-04 12:32:00,
2013-03-04 07:42:00,30.0,26.0,29.49,West,277,4.0,6.0,84,0.00,,,0.10,,2013-03-04 12:42:00,
2013-03-04 07:53:00,31.0,26.0,29.49,WNW,292,4.0,7.0,80,0.00,,,0.10,,2013-03-04 12:53:00,
2013-03-04 08:02:00,31.0,25.0,29.49,WNW,298,7.0,14.0,78,0.00,,,0.10,,2013-03-04 13:02:00,
2013-03-04 08:11:00,31.0,25.0,29.49,WNW,298,7.0,14.0,78,0.00,,,0.10,,2013-03-04 13:11:00,
2013-03-04 08:22:00,31.0,25.0,29.48,NW,309,7.0,12.0,78,0.00,,,0.10,,2013-03-04 13:22:00,
2013-03-04 08:32:00,31.0,25.0,29.48,NW,310,5.0,13.0,78,0.00,,,0.10,,2013-03-04 13:32:00,
2013-03-04 08:42:00,31.0,25.0,29.48,NW,310,5.0,13.0,78,0.00,,,0.10,,2013-03-04 13:42:00,
2013-03-04 08:52:00,32.0,26.0,29.48,WNW,298,6.0,8.0,77,0.00,,,0.09,,2013-03-04 13:52:00,
2013-03-04 09:01:00,32.0,25.0,29.48,WNW,302,7.0,14.0,76,0.00,,,0.09,,2013-03-04 14:01:00,
2013-03-04 09:12:00,32.0,25.0,29.48,WNW,302,7.0,14.0,76,0.00,,,0.09,,2013-03-04 14:12:00,
2013-03-04 09:22:00,31.0,25.0,29.48,WNW,297,6.0,10.0,78,0.00,,,0.09,,2013-03-04 14:22:00,
2013-03-04 09:32:00,30.0,25.0,29.48,WNW,297,8.0,15.0,82,0.00,,,0.09,,2013-03-04 14:32:00,
2013-03-04 09:42:00,30.0,25.0,29.48,WNW,297,8.0,15.0,82,0.00,,,0.09,,2013-03-04 14:42:00,
2013-03-04 09:52:00,30.0,26.0,29.48,West,275,7.0,14.0,84,0.00,,,0.04,,2013-03-04 14:52:00,
2013-03-04 10:02:00,31.0,26.0,29.48,WNW,288,7.0,14.0,83,0.00,,,0.04,,2013-03-04 15:02:00,
2013-03-04 10:11:00,31.0,26.0,29.48,WNW,288,7.0,14.0,83,0.00,,,0.04,,2013-03-04 15:11:00,
2013-03-04 10:22:00,31.0,26.0,29.48,WNW,287,8.0,14.0,80,0.00,,,0.04,,2013-03-04 15:22:00,
2013-03-04 10:32:00,32.0,27.0,29.48,WNW,288,7.0,12.0,80,0.00,,,0.04,,2013-03-04 15:32:00,
2013-03-04 10:42:00,32.0,27.0,29.48,WNW,288,7.0,12.0,80,0.00,,,0.04,,2013-03-04 15:42:00,
2013-03-04 10:52:00,31.0,26.0,29.48,West,281,8.0,12.0,83,0.00,,,0.01,,2013-03-04 15:52:00,
2013-03-04 11:02:00,31.0,27.0,29.48,WNW,289,8.0,11.0,84,0.00,,,0.01,,2013-03-04 16:02:00,
2013-03-04 11:11:00,31.0,27.0,29.48,WNW,289,8.0,11.0,84,0.00,,,0.01,,2013-03-04 16:11:00,
2013-03-04 11:21:00,31.0,27.0,29.48,WNW,299,5.0,14.0,86,0.00,,,0.01,,2013-03-04 16:21:00,
2013-03-04 11:32:00,31.0,28.0,29.48,WNW,296,4.0,9.0,89,0.00,,,0.01,,2013-03-04 16:32:00,
2013-03-04 11:42:00,31.0,28.0,29.48,WNW,296,4.0,9.0,89,0.00,,,0.01,,2013-03-04 16:42:00,
2013-03-04 11:52:00,31.0,28.0,29.48,West,280,5.0,11.0,90,0.00,,,0.00,,2013-03-04 16:52:00,
2013-03-04 12:02:00,31.0,29.0,29.47,WNW,289,6.0,10.0,91,0.00,,,0.00,,2013-03-04 17:02:00,
2013-03-04 12:11:00,31.0,29.0,29.47,WNW,289,6.0,10.0,91,0.00,,,0.00,,2013-03-04 17:11:00,
2013-03-04 12:22:00,31.0,29.0,29.47,WNW,296,7.0,11.0,92,0.00,,,0.00,,2013-03-04 17:22:00,
2013-03-04 12:32:00,31.0,29.0,29.47,WNW,285,7.0,11.0,93,0.00,,,0.00,,2013-03-04 17:32:00,
2013-03-04 12:42:00,31.0,29.0,29.47,WNW,285,7.0,11.0,93,0.00,,,0.00,,2013-03-04 17:42:00,
2013-03-04 12:52:00,31.0,29.0,29.47,WNW,298,6.0,11.0,94,0.00,,,0.00,,2013-03-04 17:52:00,
2013-03-04 13:02:00,31.0,29.0,29.47,WNW,293,7.0,10.0,93,0.00,,,0.00,,2013-03-04 18:02:00,
2013-03-04 13:11:00,31.0,29.0,29.47,WNW,293,7.0,10.0,93,0.00,,,0.00,,2013-03-04 18:11:00,
2013-03-04 13:22:00,32.0,30.0,29.47,NW,308,5.0,9.0,94,0.00,,,0.00,,2013-03-04 18:22:00,
2013-03-04 13:32:00,32.0,30.0,29.47,NW,320,4.0,9.0,93,0.01,,,0.01,,2013-03-04 18:32:00,
2013-03-04 13:42:00,32.0,30.0,29.47,NW,320,4.0,9.0,93,0.01,,,0.01,,2013-03-04 18:42:00,
2013-03-04 13:52:00,32.0,30.0,29.47,NW,311,4.0,7.0,93,0.01,,,0.01,,2013-03-04 18:52:00,
2013-03-04 14:02:00,32.0,30.0,29.47,West,273,7.0,9.0,93,0.02,,,0.02,,2013-03-04 19:02:00,
2013-03-04 14:12:00,32.0,30.0,29.47,West,273,7.0,9.0,93,0.02,,,0.02,,2013-03-04 19:12:00,
2013-03-04 14:22:00,32.0,30.0,29.47,WNW,295,5.0,9.0,94,0.02,,,0.02,,2013-03-04 19:22:00,
2013-03-04 14:32:00,32.0,30.0,29.47,WNW,284,7.0,9.0,93,0.01,,,0.02,,2013-03-04 19:32:00,
2013-03-04 14:42:00,32.0,30.0,29.47,WNW,284,7.0,9.0,93,0.01,,,0.02,,2013-03-04 19:42:00,
2013-03-04 14:52:00,32.0,30.0,29.47,WNW,286,7.0,10.0,91,0.02,,,0.03,,2013-03-04 19:52:00,
2013-03-04 15:02:00,33.0,30.0,29.47,NW,313,4.0,9.0,90,0.01,,,0.03,,2013-03-04 20:02:00,
2013-03-04 15:11:00,33.0,30.0,29.47,NW,313,4.0,9.0,90,0.01,,,0.03,,2013-03-04 20:11:00,
2013-03-04 15:22:00,34.0,31.0,29.47,NW,304,5.0,7.0,87,0.01,,,0.03,,2013-03-04 20:22:00,
2013-03-04 15:32:00,34.0,30.0,29.48,NW,309,3.0,5.0,85,0.01,,,0.03,,2013-03-04 20:32:00,
2013-03-04 15:42:00,34.0,30.0,29.48,NW,309,3.0,5.0,85,0.01,,,0.03,,2013-03-04 20:42:00,
2013-03-04 15:53:00,35.0,31.0,29.48,NW,310,4.0,6.0,84,0.00,,,0.03,,2013-03-04 20:53:00,
2013-03-04 16:02:00,35.0,30.0,29.48,NW,317,2.0,6.0,83,0.00,,,0.03,,2013-03-04 21:02:00,
2013-03-04 16:12:00,35.0,30.0,29.48,NW,317,2.0,6.0,83,0.00,,,0.03,,2013-03-04 21:12:00,
2013-03-04 16:22:00,35.0,30.0,29.49,NW,314,4.0,9.0,82,0.00,,,0.03,,2013-03-04 21:22:00,
2013-03-04 16:32:00,35.0,30.0,29.49,NW,321,3.0,8.0,82,0.00,,,0.03,,2013-03-04 21:32:00,
2013-03-04 16:42:00,35.0,30.0,29.49,NW,321,3.0,8.0,82,0.00,,,0.03,,2013-03-04 21:42:00,
2013-03-04 16:53:00,35.0,30.0,29.50,NW,313,4.0,7.0,82,0.00,,,0.03,,2013-03-04 21:53:00,
2013-03-04 17:02:00,35.0,30.0,29.50,NW,318,3.0,8.0,82,0.00,,,0.03,,2013-03-04 22:02:00,
2013-03-04 17:12:00,35.0,30.0,29.50,NW,318,3.0,8.0,82,0.00,,,0.03,,2013-03-04 22:12:00,
2013-03-04 17:22:00,35.0,30.0,29.51,NW,317,3.0,5.0,81,0.00,,,0.03,,2013-03-04 22:22:00,
2013-03-04 17:32:00,34.0,29.0,29.52,NW,313,2.0,5.0,82,0.00,,,0.03,,2013-03-04 22:32:00,
2013-03-04 17:42:00,34.0,29.0,29.52,NW,313,2.0,5.0,82,0.00,,,0.03,,2013-03-04 22:42:00,
2013-03-04 17:52:00,34.0,30.0,29.52,ENE,78,1.0,9.0,85,0.00,,,0.03,,2013-03-04 22:52:00,
2013-03-04 18:02:00,34.0,30.0,29.54,NW,312,2.0,3.0,86,0.00,,,0.03,,2013-03-04 23:02:00,
2013-03-04 18:11:00,34.0,30.0,29.54,NW,312,2.0,3.0,86,0.00,,,0.03,,2013-03-04 23:11:00,
2013-03-04 18:22:00,34.0,30.0,29.55,WNW,296,0.0,3.0,86,0.00,,,0.03,,2013-03-04 23:22:00,
2013-03-04 18:32:00,34.0,31.0,29.56,North,355,1.0,5.0,88,0.00,,,0.03,,2013-03-04 23:32:00,
2013-03-04 18:42:00,34.0,31.0,29.56,North,355,1.0,5.0,88,0.00,,,0.03,,2013-03-04 23:42:00,
2013-03-04 18:52:00,33.0,31.0,29.57,WNW,290,1.0,5.0,91,0.00,,,0.03,,2013-03-04 23:52:00,
2013-03-04 19:02:00,33.0,31.0,29.58,North,360,0.0,3.0,92,0.00,,,0.03,,2013-03-05 00:02:00,
2013-03-04 19:12:00,33.0,31.0,29.58,North,360,0.0,3.0,92,0.00,,,0.03,,2013-03-05 00:12:00,
2013-03-04 19:22:00,33.0,31.0,29.58,NW,315,1.0,5.0,93,0.00,,,0.03,,2013-03-05 00:22:00,
2013-03-04 19:32:00,33.0,31.0,29.59,NW,321,1.0,4.0,93,0.00,,,0.03,,2013-03-05 00:32:00,
2013-03-04 19:42:00,33.0,31.0,29.59,NW,321,1.0,4.0,93,0.00,,,0.03,,2013-03-05 00:42:00,
2013-03-04 19:52:00,33.0,31.0,29.59,NNW,332,2.0,6.0,93,0.00,,,0.03,,2013-03-05 00:52:00,
2013-03-04 20:02:00,32.0,30.0,29.59,NNW,347,1.0,3.0,93,0.00,,,0.03,,2013-03-05 01:02:00,
2013-03-04 20:12:00,32.0,30.0,29.59,NNW,347,1.0,3.0,93,0.00,,,0.03,,2013-03-05 01:12:00,
2013-03-04 20:22:00,32.0,30.0,29.59,NW,323,2.0,6.0,93,0.00,,,0.03,,2013-03-05 01:22:00,
2013-03-04 20:33:00,32.0,30.0,29.60,NNW,333,1.0,4.0,93,0.00,,,0.03,,2013-03-05 01:33:00,
2013-03-04 20:42:00,32.0,30.0,29.60,NNW,333,1.0,4.0,93,0.00,,,0.03,,2013-03-05 01:42:00,
2013-03-04 20:52:00,32.0,30.0,29.61,NNW,337,0.0,3.0,94,0.00,,,0.03,,2013-03-05 01:52:00,
2013-03-04 21:01:00,32.0,30.0,29.62,NW,325,1.0,6.0,94,0.00,,,0.03,,2013-03-05 02:01:00,
2013-03-04 21:11:00,32.0,30.0,29.62,NW,325,1.0,6.0,94,0.00,,,0.03,,2013-03-05 02:11:00,
2013-03-04 21:22:00,32.0,30.0,29.62,NNW,345,0.0,2.0,94,0.00,,,0.03,,2013-03-05 02:22:00,
2013-03-04 21:32:00,32.0,30.0,29.63,NNW,333,0.0,3.0,94,0.00,,,0.03,,2013-03-05 02:32:00,
2013-03-04 21:42:00,32.0,30.0,29.63,NNW,333,0.0,3.0,94,0.00,,,0.03,,2013-03-05 02:42:00,
2013-03-04 21:53:00,32.0,30.0,29.63,WSW,239,0.0,1.0,94,0.00,,,0.03,,2013-03-05 02:53:00,
2013-03-04 22:02:00,32.0,30.0,29.64,West,275,0.0,2.0,93,0.00,,,0.03,,2013-03-05 03:02:00,
2013-03-04 22:12:00,32.0,30.0,29.64,West,275,0.0,2.0,93,0.00,,,0.03,,2013-03-05 03:12:00,
2013-03-04 22:22:00,32.0,30.0,29.64,WNW,297,0.0,3.0,93,0.00,,,0.03,,2013-03-05 03:22:00,
2013-03-04 22:32:00,32.0,30.0,29.65,NNW,327,0.0,3.0,93,0.00,,,0.03,,2013-03-05 03:32:00,
2013-03-04 22:42:00,32.0,30.0,29.65,NNW,327,0.0,3.0,93,0.00,,,0.03,,2013-03-05 03:42:00,
2013-03-04 22:52:00,32.0,30.0,29.65,North,355,0.0,2.0,93,0.00,,,0.03,,2013-03-05 03:52:00,
2013-03-04 23:02:00,32.0,30.0,29.66,North,355,0.0,3.0,93,0.00,,,0.03,,2013-03-05 04:02:00,
2013-03-04 23:12:00,32.0,30.0,29.66,North,355,0.0,3.0,93,0.00,,,0.03,,2013-03-05 04:12:00,
2013-03-04 23:22:00,32.0,30.0,29.66,North,355,0.0,2.0,93,0.00,,,0.03,,2013-03-05 04:22:00,
2013-03-04 23:32:00,32.0,30.0,29.67,NW,315,0.0,3.0,92,0.00,,,0.03,,2013-03-05 04:32:00,
2013-03-04 23:42:00,32.0,30.0,29.67,NW,315,0.0,3.0,92,0.00,,,0.03,,2013-03-05 04:42:00,
2013-03-04 23:52:00,32.0,30.0,29.67,NNW,337,0.0,2.0,92,0.00,,,0.03,,2013-03-05 04:52:00,